Time,TemperatureF,DewpointF,PressureIn,WindDirection,WindDirectionDegrees,WindSpeedMPH,WindSpeedGustMPH,Humidity,HourlyPrecipIn,Conditions,Clouds,dailyrainin,SolarRadiationWatts/m^2,SoftwareType,DateUTC
2013-07-24 00:02:00,64.0,60.0,29.92,ESE,109,3.0,9.0,86,0.00,,,0.05,0.000000,,2013-07-24 05:02:00,
2013-07-24 00:11:00,64.0,60.0,29.92,ESE,109,3.0,9.0,86,0.00,,,0.05,0.000000,,2013-07-24 05:11:00,
2013-07-24 00:22:00,64.0,59.0,29.92,East,96,1.0,8.0,85,0.00,,,0.05,0.000000,,2013-07-24 05:22:00,
2013-07-24 00:43:00,63.0,59.0,29.92,East,101,2.0,8.0,86,0.00,,,0.05,0.000000,,2013-07-24 05:43:00,
2013-07-24 00:52:00,63.0,59.0,29.93,East,95,0.0,4.0,87,0.00,,,0.05,0.000000,,2013-07-24 05:52:00,
2013-07-24 01:01:00,62.0,58.0,29.93,East,86,1.0,5.0,88,0.00,,,0.05,0.000000,,2013-07-24 06:01:00,
2013-07-24 01:11:00,62.0,58.0,29.93,East,86,1.0,5.0,88,0.00,,,0.05,0.000000,,2013-07-24 06:11:00,
2013-07-24 01:24:00,62.0,58.0,29.93,East,89,2.0,8.0,87,0.00,,,0.01,0.000000,,2013-07-24 06:24:00,
2013-07-24 01:34:00,61.0,57.0,29.93,East,82,1.0,4.0,87,0.00,,,0.01,0.000000,,2013-07-24 06:34:00,
2013-07-24 01:43:00,61.0,57.0,29.93,East,82,1.0,4.0,87,0.00,,,0.01,0.000000,,2013-07-24 06:43:00,
2013-07-24 01:53:00,61.0,57.0,29.93,East,87,0.0,4.0,87,0.00,,,0.01,0.000000,,2013-07-24 06:53:00,
2013-07-24 02:02:00,60.0,56.0,29.93,NE,44,0.0,3.0,88,0.00,,,0.01,0.000000,,2013-07-24 07:02:00,
2013-07-24 02:12:00,60.0,56.0,29.93,NE,44,0.0,3.0,88,0.00,,,0.01,0.000000,,2013-07-24 07:12:00,
2013-07-24 02:22:00,60.0,57.0,29.93,NE,56,0.0,2.0,89,0.00,,,0.01,0.000000,,2013-07-24 07:22:00,
2013-07-24 02:32:00,59.0,56.0,29.94,ENE,61,0.0,1.0,89,0.00,,,0.01,0.000000,,2013-07-24 07:32:00,
2013-07-24 02:43:00,59.0,56.0,29.94,ENE,61,0.0,1.0,89,0.00,,,0.01,0.000000,,2013-07-24 07:43:00,
2013-07-24 02:53:00,59.0,56.0,29.93,ENE,68,0.0,3.0,90,0.00,,,0.01,0.000000,,2013-07-24 07:53:00,
2013-07-24 03:02:00,59.0,56.0,29.94,ENE,68,0.0,0.0,90,0.00,,,0.01,0.000000,,2013-07-24 08:02:00,
2013-07-24 03:12:00,59.0,56.0,29.94,ENE,68,0.0,0.0,90,0.00,,,0.01,0.000000,,2013-07-24 08:12:00,
2013-07-24 03:22:00,58.0,55.0,29.94,ENE,68,0.0,0.0,91,0.00,,,0.01,0.000000,,2013-07-24 08:22:00,
2013-07-24 03:32:00,58.0,56.0,29.94,ENE,68,0.0,0.0,92,0.00,,,0.01,0.000000,,2013-07-24 08:32:00,
2013-07-24 03:43:00,58.0,56.0,29.94,ENE,68,0.0,0.0,92,0.00,,,0.01,0.000000,,2013-07-24 08:43:00,
2013-07-24 03:52:00,57.0,55.0,29.94,ENE,68,0.0,0.0,93,0.00,,,0.01,0.000000,,2013-07-24 08:52:00,
2013-07-24 04:02:00,57.0,55.0,29.95,ENE,68,0.0,0.0,93,0.00,,,0.01,0.000000,,2013-07-24 09:02:00,
2013-07-24 04:12:00,57.0,55.0,29.95,ENE,68,0.0,0.0,93,0.00,,,0.01,0.000000,,2013-07-24 09:12:00,
2013-07-24 04:22:00,57.0,55.0,29.95,ENE,68,0.0,0.0,94,0.00,,,0.01,0.000000,,2013-07-24 09:22:00,
2013-07-24 04:32:00,57.0,55.0,29.95,ENE,68,0.0,3.0,94,0.00,,,0.01,0.000000,,2013-07-24 09:32:00,
2013-07-24 04:43:00,57.0,55.0,29.95,ENE,68,0.0,3.0,94,0.00,,,0.01,0.000000,,2013-07-24 09:43:00,
2013-07-24 04:53:00,56.0,54.0,29.95,ENE,68,0.0,1.0,94,0.00,,,0.01,0.000000,,2013-07-24 09:53:00,
2013-07-24 05:02:00,56.0,54.0,29.96,ENE,68,0.0,1.0,94,0.00,,,0.01,0.000000,,2013-07-24 10:02:00,
2013-07-24 05:12:00,56.0,54.0,29.96,ENE,68,0.0,1.0,94,0.00,,,0.01,0.000000,,2013-07-24 10:12:00,
2013-07-24 05:22:00,56.0,54.0,29.97,ENE,68,0.0,0.0,94,0.00,,,0.01,0.000000,,2013-07-24 10:22:00,
2013-07-24 05:33:00,56.0,55.0,29.97,ENE,68,0.0,2.0,95,0.00,,,0.01,0.000000,,2013-07-24 10:33:00,
2013-07-24 05:43:00,56.0,55.0,29.97,ENE,68,0.0,2.0,95,0.00,,,0.01,0.000000,,2013-07-24 10:43:00,
2013-07-24 05:53:00,56.0,55.0,29.98,NNE,13,3.0,6.0,95,0.00,,,0.01,0.000000,,2013-07-24 10:53:00,
2013-07-24 06:02:00,56.0,54.0,29.97,North,5,2.0,6.0,94,0.00,,,0.01,5.000000,,2013-07-24 11:02:00,
2013-07-24 06:12:00,56.0,54.0,29.97,North,5,2.0,6.0,94,0.00,,,0.01,5.000000,,2013-07-24 11:12:00,
2013-07-24 06:22:00,56.0,54.0,29.97,North,5,3.0,6.0,94,0.00,,,0.01,12.000000,,2013-07-24 11:22:00,
2013-07-24 06:32:00,56.0,54.0,29.97,NNE,29,1.0,5.0,94,0.00,,,0.01,19.000000,,2013-07-24 11:32:00,
2013-07-24 06:43:00,56.0,54.0,29.97,NNE,29,1.0,5.0,94,0.00,,,0.01,19.000000,,2013-07-24 11:43:00,
2013-07-24 06:52:00,57.0,55.0,29.97,North,5,1.0,4.0,94,0.00,,,0.01,30.000000,,2013-07-24 11:52:00,
2013-07-24 07:02:00,57.0,55.0,29.97,NNE,14,0.0,5.0,93,0.00,,,0.01,83.000000,,2013-07-24 12:02:00,
2013-07-24 07:12:00,57.0,55.0,29.97,NNE,14,0.0,5.0,93,0.00,,,0.01,83.000000,,2013-07-24 12:12:00,
2013-07-24 07:22:00,59.0,56.0,29.98,North,5,1.0,5.0,90,0.00,,,0.00,120.000000,,2013-07-24 12:22:00,
2013-07-24 07:32:00,60.0,56.0,29.98,NNE,17,1.0,5.0,88,0.00,,,0.00,167.000000,,2013-07-24 12:32:00,
2013-07-24 07:42:00,60.0,56.0,29.98,NNE,17,1.0,5.0,88,0.00,,,0.00,167.000000,,2013-07-24 12:42:00,
2013-07-24 07:52:00,61.0,57.0,29.98,NNE,32,1.0,7.0,86,0.00,,,0.00,213.000000,,2013-07-24 12:52:00,
2013-07-24 08:02:00,61.0,55.0,29.98,ENE,66,1.0,6.0,82,0.00,,,0.00,267.000000,,2013-07-24 13:02:00,
2013-07-24 08:12:00,61.0,55.0,29.98,ENE,66,1.0,6.0,82,0.00,,,0.00,267.000000,,2013-07-24 13:12:00,
2013-07-24 08:22:00,62.0,56.0,29.99,NNE,29,2.0,9.0,81,0.00,,,0.00,327.000000,,2013-07-24 13:22:00,
2013-07-24 08:32:00,62.0,56.0,29.99,East,80,3.0,10.0,80,0.00,,,0.00,376.000000,,2013-07-24 13:32:00,
2013-07-24 08:43:00,62.0,56.0,29.99,East,80,3.0,10.0,80,0.00,,,0.00,376.000000,,2013-07-24 13:43:00,
2013-07-24 08:53:00,62.0,55.0,30.00,NNE,20,4.0,10.0,78,0.00,,,0.00,422.000000,,2013-07-24 13:53:00,
2013-07-24 09:02:00,63.0,55.0,30.00,North,5,5.0,9.0,76,0.00,,,0.00,469.000000,,2013-07-24 14:02:00,
2013-07-24 09:12:00,63.0,55.0,30.00,North,5,5.0,9.0,76,0.00,,,0.00,469.000000,,2013-07-24 14:12:00,
2013-07-24 09:22:00,63.0,55.0,30.00,East,92,4.0,11.0,75,0.00,,,0.00,517.000000,,2013-07-24 14:22:00,
2013-07-24 09:32:00,64.0,56.0,30.01,NE,38,5.0,13.0,74,0.00,,,0.00,557.000000,,2013-07-24 14:32:00,
2013-07-24 09:43:00,64.0,56.0,30.01,NE,38,5.0,13.0,74,0.00,,,0.00,557.000000,,2013-07-24 14:43:00,
2013-07-24 09:55:00,64.0,55.0,30.01,NE,55,4.0,13.0,73,0.00,,,0.00,603.000000,,2013-07-24 14:55:00,
2013-07-24 10:02:00,64.0,55.0,30.01,NNE,27,4.0,15.0,72,0.00,,,0.00,647.000000,,2013-07-24 15:02:00,
2013-07-24 10:12:00,64.0,55.0,30.01,NNE,27,4.0,15.0,72,0.00,,,0.00,647.000000,,2013-07-24 15:12:00,
2013-07-24 10:22:00,65.0,56.0,30.01,NE,38,2.0,12.0,73,0.00,,,0.00,686.000000,,2013-07-24 15:22:00,
2013-07-24 10:33:00,65.0,55.0,30.01,East,98,4.0,12.0,71,0.00,,,0.00,724.000000,,2013-07-24 15:33:00,
2013-07-24 10:43:00,65.0,55.0,30.01,East,98,4.0,12.0,71,0.00,,,0.00,724.000000,,2013-07-24 15:43:00,
2013-07-24 10:53:00,65.0,55.0,30.01,ENE,66,5.0,11.0,69,0.00,,,0.00,761.000000,,2013-07-24 15:53:00,
2013-07-24 11:02:00,66.0,56.0,30.01,ENE,71,3.0,8.0,70,0.00,,,0.00,793.000000,,2013-07-24 16:02:00,
2013-07-24 11:12:00,66.0,56.0,30.01,ENE,71,3.0,8.0,70,0.00,,,0.00,793.000000,,2013-07-24 16:12:00,
2013-07-24 11:22:00,66.0,55.0,30.01,ENE,76,5.0,11.0,67,0.00,,,0.00,824.000000,,2013-07-24 16:22:00,
2013-07-24 11:32:00,67.0,56.0,30.01,NNE,28,3.0,8.0,68,0.00,,,0.00,849.000000,,2013-07-24 16:32:00,
2013-07-24 11:43:00,67.0,56.0,30.01,NNE,28,3.0,8.0,68,0.00,,,0.00,849.000000,,2013-07-24 16:43:00,
2013-07-24 11:53:00,67.0,56.0,30.01,NNE,15,3.0,10.0,67,0.00,,,0.00,872.000000,,2013-07-24 16:53:00,
2013-07-24 12:02:00,68.0,54.0,30.01,North,9,7.0,14.0,62,0.00,,,0.00,895.000000,,2013-07-24 17:02:00,
2013-07-24 12:12:00,68.0,54.0,30.01,North,9,7.0,14.0,62,0.00,,,0.00,895.000000,,2013-07-24 17:12:00,
2013-07-24 12:22:00,68.0,56.0,30.01,NNE,13,6.0,11.0,65,0.00,,,0.00,912.000000,,2013-07-24 17:22:00,
2013-07-24 12:33:00,69.0,55.0,30.01,East,84,4.0,11.0,62,0.00,,,0.00,926.000000,,2013-07-24 17:33:00,
2013-07-24 12:43:00,69.0,55.0,30.01,East,84,4.0,11.0,62,0.00,,,0.00,926.000000,,2013-07-24 17:43:00,
2013-07-24 12:53:00,69.0,55.0,30.02,North,355,6.0,14.0,62,0.00,,,0.00,932.000000,,2013-07-24 17:53:00,
2013-07-24 13:02:00,69.0,55.0,30.02,NE,51,4.0,11.0,61,0.00,,,0.00,944.000000,,2013-07-24 18:02:00,
2013-07-24 13:12:00,69.0,55.0,30.02,NE,51,4.0,11.0,61,0.00,,,0.00,944.000000,,2013-07-24 18:12:00,
2013-07-24 13:22:00,70.0,55.0,30.02,North,5,4.0,11.0,58,0.00,,,0.00,947.000000,,2013-07-24 18:22:00,
2013-07-24 13:33:00,70.0,57.0,30.02,North,351,4.0,9.0,64,0.00,,,0.00,946.000000,,2013-07-24 18:33:00,
2013-07-24 13:43:00,70.0,57.0,30.02,North,351,4.0,9.0,64,0.00,,,0.00,946.000000,,2013-07-24 18:43:00,
2013-07-24 13:52:00,71.0,56.0,30.02,NNW,346,5.0,11.0,59,0.00,,,0.00,942.000000,,2013-07-24 18:52:00,
2013-07-24 14:02:00,71.0,56.0,30.01,NE,47,3.0,10.0,59,0.00,,,0.00,939.000000,,2013-07-24 19:02:00,
2013-07-24 14:12:00,71.0,56.0,30.01,NE,47,3.0,10.0,59,0.00,,,0.00,939.000000,,2013-07-24 19:12:00,
2013-07-24 14:22:00,71.0,55.0,30.01,ENE,67,2.0,9.0,57,0.00,,,0.00,926.000000,,2013-07-24 19:22:00,
2013-07-24 14:32:00,72.0,55.0,30.01,NE,49,4.0,12.0,56,0.00,,,0.00,919.000000,,2013-07-24 19:32:00,
2013-07-24 14:43:00,72.0,55.0,30.01,NE,49,4.0,12.0,56,0.00,,,0.00,919.000000,,2013-07-24 19:43:00,
2013-07-24 14:53:00,72.0,56.0,30.01,NNE,20,5.0,10.0,57,0.00,,,0.00,900.000000,,2013-07-24 19:53:00,
2013-07-24 15:13:00,72.0,55.0,30.00,NE,53,2.0,9.0,56,0.00,,,0.00,877.000000,,2013-07-24 20:13:00,
2013-07-24 15:23:00,72.0,55.0,30.00,NE,50,3.0,9.0,55,0.00,,,0.00,858.000000,,2013-07-24 20:23:00,
2013-07-24 15:32:00,72.0,55.0,30.00,ENE,76,2.0,9.0,56,0.00,,,0.00,830.000000,,2013-07-24 20:32:00,
2013-07-24 15:43:00,72.0,55.0,30.00,ENE,76,2.0,9.0,56,0.00,,,0.00,830.000000,,2013-07-24 20:43:00,
2013-07-24 15:53:00,73.0,57.0,30.00,East,86,3.0,7.0,57,0.00,,,0.00,802.000000,,2013-07-24 20:53:00,
2013-07-24 16:12:00,73.0,56.0,30.00,NNE,26,3.0,12.0,56,0.00,,,0.00,770.000000,,2013-07-24 21:12:00,
2013-07-24 16:22:00,73.0,56.0,30.00,NNE,29,4.0,9.0,55,0.00,,,0.00,740.000000,,2013-07-24 21:22:00,
2013-07-24 16:32:00,73.0,57.0,29.99,North,355,4.0,8.0,57,0.00,,,0.00,777.000000,,2013-07-24 21:32:00,
2013-07-24 16:43:00,73.0,57.0,29.99,North,355,4.0,8.0,57,0.00,,,0.00,777.000000,,2013-07-24 21:43:00,
2013-07-24 16:53:00,73.0,57.0,29.99,East,84,3.0,9.0,58,0.00,,,0.00,668.000000,,2013-07-24 21:53:00,
2013-07-24 17:02:00,74.0,59.0,29.99,East,96,1.0,9.0,59,0.00,,,0.00,626.000000,,2013-07-24 22:02:00,
2013-07-24 17:12:00,74.0,59.0,29.99,East,96,1.0,9.0,59,0.00,,,0.00,626.000000,,2013-07-24 22:12:00,
2013-07-24 17:22:00,74.0,56.0,29.98,ENE,67,2.0,8.0,53,0.00,,,0.00,573.000000,,2013-07-24 22:22:00,
2013-07-24 17:32:00,74.0,56.0,29.99,ENE,71,2.0,7.0,54,0.00,,,0.00,533.000000,,2013-07-24 22:32:00,
2013-07-24 17:43:00,74.0,56.0,29.99,ENE,71,2.0,7.0,54,0.00,,,0.00,533.000000,,2013-07-24 22:43:00,
2013-07-24 17:53:00,73.0,55.0,29.99,NNE,32,2.0,6.0,53,0.00,,,0.00,489.000000,,2013-07-24 22:53:00,
2013-07-24 18:02:00,74.0,58.0,29.99,North,5,1.0,6.0,57,0.00,,,0.00,438.000000,,2013-07-24 23:02:00,
2013-07-24 18:12:00,74.0,58.0,29.99,North,5,1.0,6.0,57,0.00,,,0.00,438.000000,,2013-07-24 23:12:00,
2013-07-24 18:22:00,74.0,58.0,29.99,North,5,1.0,5.0,58,0.00,,,0.00,399.000000,,2013-07-24 23:22:00,
2013-07-24 18:32:00,73.0,56.0,29.99,NNE,20,0.0,1.0,56,0.00,,,0.00,334.000000,,2013-07-24 23:32:00,
2013-07-24 18:43:00,73.0,56.0,29.99,NNE,20,0.0,1.0,56,0.00,,,0.00,334.000000,,2013-07-24 23:43:00,
2013-07-24 18:52:00,74.0,57.0,30.00,North,5,0.0,4.0,56,0.00,,,0.00,292.000000,,2013-07-24 23:52:00,
2013-07-24 19:02:00,73.0,58.0,30.00,NE,40,0.0,1.0,59,0.00,,,0.00,243.000000,,2013-07-25 00:02:00,
2013-07-24 19:12:00,73.0,58.0,30.00,NE,40,0.0,1.0,59,0.00,,,0.00,243.000000,,2013-07-25 00:12:00,
2013-07-24 19:22:00,72.0,58.0,30.00,NE,40,0.0,2.0,62,0.00,,,0.00,76.000000,,2013-07-25 00:22:00,
2013-07-24 19:33:00,71.0,59.0,30.00,NE,40,0.0,2.0,67,0.00,,,0.00,47.000000,,2013-07-25 00:33:00,
2013-07-24 19:43:00,71.0,59.0,30.00,NE,40,0.0,2.0,67,0.00,,,0.00,47.000000,,2013-07-25 00:43:00,
2013-07-24 19:53:00,70.0,58.0,30.00,NE,40,0.0,0.0,66,0.00,,,0.00,58.000000,,2013-07-25 00:53:00,
2013-07-24 20:02:00,70.0,60.0,30.00,NE,40,0.0,0.0,70,0.00,,,0.00,32.000000,,2013-07-25 01:02:00,
2013-07-24 20:12:00,70.0,60.0,30.00,NE,40,0.0,0.0,70,0.00,,,0.00,32.000000,,2013-07-25 01:12:00,
2013-07-24 20:22:00,69.0,59.0,30.00,NE,40,0.0,0.0,71,0.00,,,0.00,14.000000,,2013-07-25 01:22:00,
2013-07-24 20:32:00,69.0,59.0,30.00,NE,40,0.0,0.0,71,0.00,,,0.00,14.000000,,2013-07-25 01:32:00,
2013-07-24 20:43:00,68.0,60.0,30.00,NE,40,0.0,0.0,75,0.00,,,0.00,0.000000,,2013-07-25 01:43:00,
2013-07-24 20:53:00,67.0,60.0,30.00,NE,40,0.0,2.0,77,0.00,,,0.00,0.000000,,2013-07-25 01:53:00,
2013-07-24 21:02:00,66.0,58.0,30.01,NE,40,0.0,0.0,76,0.00,,,0.00,0.000000,,2013-07-25 02:02:00,
2013-07-24 21:12:00,66.0,58.0,30.01,NE,40,0.0,0.0,76,0.00,,,0.00,0.000000,,2013-07-25 02:12:00,
2013-07-24 21:22:00,66.0,59.0,30.01,NE,40,0.0,0.0,77,0.00,,,0.00,0.000000,,2013-07-25 02:22:00,
2013-07-24 21:33:00,65.0,59.0,30.00,NE,40,0.0,0.0,81,0.00,,,0.00,0.000000,,2013-07-25 02:33:00,
2013-07-24 21:43:00,65.0,59.0,30.00,NE,40,0.0,0.0,81,0.00,,,0.00,0.000000,,2013-07-25 02:43:00,
2013-07-24 21:53:00,64.0,58.0,30.01,NE,40,0.0,0.0,81,0.00,,,0.00,0.000000,,2013-07-25 02:53:00,
2013-07-24 22:02:00,63.0,57.0,30.01,NE,40,0.0,0.0,82,0.00,,,0.00,0.000000,,2013-07-25 03:02:00,
2013-07-24 22:16:00,63.0,57.0,30.01,NE,40,0.0,0.0,82,0.00,,,0.00,0.000000,,2013-07-25 03:16:00,
2013-07-24 22:24:00,62.0,56.0,30.01,NE,40,0.0,1.0,81,0.00,,,0.00,0.000000,,2013-07-25 03:24:00,
2013-07-24 22:37:00,62.0,57.0,30.02,NE,40,0.0,0.0,83,0.00,,,0.00,0.000000,,2013-07-25 03:37:00,
2013-07-24 22:44:00,62.0,57.0,30.02,NE,40,0.0,0.0,83,0.00,,,0.00,0.000000,,2013-07-25 03:44:00,
2013-07-24 22:52:00,62.0,56.0,30.03,NE,40,0.0,0.0,82,0.00,,,0.00,0.000000,,2013-07-25 03:52:00,
2013-07-24 23:02:00,61.0,55.0,30.03,NE,40,0.0,1.0,81,0.00,,,0.00,0.000000,,2013-07-25 04:02:00,
2013-07-24 23:12:00,61.0,55.0,30.03,NE,40,0.0,1.0,81,0.00,,,0.00,0.000000,,2013-07-25 04:12:00,
2013-07-24 23:22:00,61.0,55.0,30.03,East,79,0.0,2.0,82,0.00,,,0.00,0.000000,,2013-07-25 04:22:00,
2013-07-24 23:32:00,60.0,54.0,30.03,East,88,0.0,2.0,81,0.00,,,0.00,0.000000,,2013-07-25 04:32:00,
2013-07-24 23:43:00,60.0,54.0,30.03,East,88,0.0,2.0,81,0.00,,,0.00,0.000000,,2013-07-25 04:43:00,
2013-07-24 23:53:00,60.0,54.0,30.03,ENE,77,0.0,3.0,80,0.00,,,0.00,0.000000,,2013-07-25 04:53:00,